CZ-6A DEB, 56256

Orbit data source: Space-Track

CZ-6A DEB, 56256 is space debris in SSO originally from a launch on Fri, 11 Nov 2022 UTC launched from the Taiyaun Space Center, China (TSC). Debris objects in space refer to the collection of defunct objects orbiting the Earth. Examples of debris include non-operational satellites, rocket bodies, and fragments generated from explosions, collisions, or faulty payload assembly.

Loading next visibility...
Identifier
56256, 2022-151ABY
Orbit
SSO
Country
Flag of CNCN / PRC
Related business
Manufacturer
SAST
Mission
Spacecraft
Bus & Motor
Unknown
Mass
Unknown
Launch date (UTC)
2022-11-11 (3 years ago)
Launch vehicle
Unknown
Launch site
Taiyaun Space Center, China (TSC)
Object type
Payload
Rocket body
Debris
Shape & HBR
Unknown shape, 0.1 m
Radar Cross Section
Small (<0.1 m²)

Expand to show TLE details & history
Last TLE update: 18 hours ago

TLE from 18 hours ago
0 CZ-6A DEB
1 56256U 22151ABY 25350.13379693  .00001543  00000-0  31728-3 0  9998
2 56256  98.5977  44.3153 0144626  28.7090 332.1971 14.55750966145329
Epoch: 2025-12-16T03:12Z
TLE epoch observation values (Epoch: 2025-12-16T03:12:40.054Z)
Latitude
-0.00006°
Longitude
-88.87396°
Altitude
619.565 km
Speed
7.597 km/s
True Right ascension
02h 57m 15s
True Declination
0° 00' 00"
Sunlit
Object was in full shadow at epoch
Visualization orbit readout
Latitude
Unknown
Longitude
Unknown
Altitude
Unknown
Speed
Unknown
Apparent Right ascension
Unknown
Apparent Declination
Unknown
Sunlit
N/A
Visualization observer readout
Local Sidereal Time
19:43:04
Azimuth
Unknown
Elevation
Unknown
Doppler factor
Unknown
Orbital elements
Apogee altitude
806.458 km
Perigee altitude
601.605 km
Semi-major axis
7,082.169 km
Eccentricity
0.01446
Inclination
98.5977°
RAAN
44.3153°
Arg. of periapsis
28.709°
True anomaly
331.41156°
Mean anomaly
332.1971°
Eccentric anomaly
331.80559°
Mean motion
3.64161 °/min
Orbital period
98.86 mins
BSTAR
0.00031728
Loading maneuver chart data...
Computing Atmospheric mass density...
Loading historical data...
Loading historical data...
Loading historical data...
Loading historical data...
Loading historical data...
Loading historical data...
Loading historical data...

Documentation

Showing up to 5 results
|